ONEWEB-0222 (48775 NORAD) Tracking and Keplerian Element Data

This shows tracking and keplerian element data for the satellite.

Feedback or suggestion? Click here.




ElementValue
Catalog48775
NameONEWEB-0222
Epoch Orbit1073
Epoch Day211.25001157
Epoch Year2021
RAAN255.7521
Inclination87.5772
Eccentricity0.001239
Argument of Perigee52.8743
Mean Anonmoly334.4652
Mean Motion14.4514103
Decay Rate-0.01479981
L11 48775U 21045J 21211.25001157 -.01479981 00000-0 -45497+0 0 9990
L22 48775 87.5772 255.7521 0012390 52.8743 334.4652 14.45141030 10731

Live tracking and technical data element details for ONEWEB-0222 (NORAD 48775). ONEWEB-0222 can be tracked NOW for your location showing map with azimuth and elevation plus other details from your city location.

Track the satellite on the map from your city or location and see movement details for azimuth, elevation, latitude, longitude, range, height, and movement on the map or in text.







IsCatalogInMostPopularTable: catalog: 48775, numindb: 15
Update: records affected: 1



GetName: 48775 ONEWEB-0222

Hit Count: updated at: Sat, 31 Jul 2021 15:02:18 GMT